| time (UTC) | temp F | wind direction | speed MPH | gust MPH | rain 1hr in | rain 24hr in | rain mn in | humidity % | barometer mb |
| 20260508012729 | 50 | 284 | 1.0 | 4.0 | 0.00 | 0.02 | 0.00 | 35 | 1007.9 |
| 20260508012204 | 50 | 269 | 0.0 | 2.0 | 0.00 | 0.02 | 0.00 | 34 | 1007.8 |
| 20260508011725 | 50 | 284 | 0.0 | 2.0 | 0.00 | 0.02 | 0.00 | 35 | 1007.8 |
| 20260508011201 | 50 | 297 | 0.0 | 2.0 | 0.00 | 0.02 | 0.00 | 35 | 1007.8 |
| 20260508010700 | 50 | 271 | 1.0 | 2.0 | 0.00 | 0.02 | 0.00 | 34 | 1007.6 |
| 20260508010158 | 50 | 262 | 0.0 | 2.0 | 0.00 | 0.02 | 0.00 | 35 | 1007.7 |
| 20260508005715 | 50 | 238 | 0.0 | 2.0 | 0.00 | 0.02 | 0.00 | 35 | 1007.6 |
| 20260508005231 | 50 | 234 | 0.0 | 2.0 | 0.00 | 0.02 | 0.00 | 34 | 1007.6 |
| 20260508004708 | 50 | 127 | 0.0 | 1.0 | 0.00 | 0.02 | 0.00 | 35 | 1007.6 |
| 20260508004625 | 50 | 127 | 0.0 | 1.0 | 0.00 | 0.02 | 0.00 | 34 | 1007.5 |
| 20260508004207 | 50 | 127 | 0.0 | 1.0 | 0.00 | 0.02 | 0.00 | 34 | 1007.4 |
| 20260508003707 | 51 | 231 | 0.0 | 1.0 | 0.00 | 0.02 | 0.00 | 33 | 1007.3 |
| 20260508003205 | 51 | 266 | 0.0 | 1.0 | 0.00 | 0.02 | 0.00 | 32 | 1007.4 |
| 20260508002705 | 51 | 244 | 0.0 | 2.0 | 0.00 | 0.02 | 0.00 | 32 | 1007.3 |
| 20260508002203 | 52 | 271 | 0.0 | 2.0 | 0.00 | 0.02 | 0.00 | 32 | 1007.3 |
| 20260508001704 | 52 | 262 | 0.0 | 2.0 | 0.00 | 0.02 | 0.00 | 31 | 1007.2 |
| 20260508001222 | 52 | 272 | 1.0 | 2.0 | 0.00 | 0.02 | 0.00 | 32 | 1007.2 |
| 20260508000700 | 52 | 295 | 1.0 | 2.0 | 0.00 | 0.02 | 0.00 | 30 | 1007.1 |
| 20260508000235 | 53 | 281 | 1.0 | 2.0 | 0.00 | 0.02 | 0.00 | 30 | 1007.1 |
| 20260508000132 | 52 | 279 | 0.0 | 2.0 | 0.00 | 0.02 | 0.00 | 30 | 1007.0 |
| 20260507235713 | 53 | 253 | 0.0 | 4.0 | 0.00 | 0.02 | 0.00 | 31 | 1007.0 |
| 20260507235251 | 53 | 259 | 0.0 | 4.0 | 0.00 | 0.02 | 0.00 | 30 | 1007.1 |
| 20260507234705 | 54 | 283 | 0.0 | 4.0 | 0.00 | 0.02 | 0.00 | 29 | 1007.0 |
| 20260507234224 | 54 | 254 | 1.0 | 4.0 | 0.00 | 0.02 | 0.00 | 29 | 1006.9 |
| 20260507233703 | 54 | 255 | 1.0 | 3.0 | 0.00 | 0.02 | 0.00 | 30 | 1006.9 |
| 20260507233223 | 54 | 300 | 1.0 | 4.0 | 0.00 | 0.02 | 0.00 | 28 | 1006.9 |
| 20260507232700 | 55 | 272 | 1.0 | 4.0 | 0.00 | 0.02 | 0.00 | 28 | 1006.9 |
| 20260507232158 | 55 | 249 | 1.0 | 4.0 | 0.00 | 0.02 | 0.00 | 28 | 1006.9 |
| 20260507231657 | 55 | 315 | 0.0 | 4.0 | 0.00 | 0.02 | 0.00 | 27 | 1006.8 |
| 20260507231153 | 56 | 264 | 2.0 | 5.0 | 0.00 | 0.02 | 0.00 | 26 | 1006.8 |
| 20260507230653 | 56 | 335 | 2.0 | 6.0 | 0.00 | 0.02 | 0.00 | 25 | 1006.7 |
| 20260507230152 | 56 | 241 | 3.0 | 6.0 | 0.00 | 0.02 | 0.00 | 24 | 1006.8 |
| 20260507225653 | 57 | 93 | 3.0 | 9.0 | 0.00 | 0.03 | 0.00 | 23 | 1006.7 |
| 20260507225234 | 57 | 263 | 3.0 | 9.0 | 0.00 | 0.03 | 0.00 | 24 | 1006.6 |
| 20260507224732 | 58 | 278 | 0.0 | 8.0 | 0.00 | 0.03 | 0.00 | 24 | 1006.6 |
| 20260507224624 | 57 | 248 | 0.0 | 8.0 | 0.00 | 0.03 | 0.00 | 24 | 1006.6 |
| 20260507224207 | 58 | 299 | 2.0 | 7.0 | 0.00 | 0.03 | 0.00 | 23 | 1006.6 |
| 20260507223704 | 58 | 309 | 1.0 | 7.0 | 0.00 | 0.03 | 0.00 | 24 | 1006.6 |
| 20260507223201 | 58 | 252 | 3.0 | 8.0 | 0.00 | 0.03 | 0.00 | 24 | 1006.5 |
| 20260507222702 | 58 | 206 | 3.0 | 8.0 | 0.00 | 0.03 | 0.00 | 23 | 1006.4 |
| 20260507222159 | 59 | 283 | 4.0 | 8.0 | 0.00 | 0.03 | 0.00 | 21 | 1006.3 |
| 20260507221659 | 59 | 282 | 2.0 | 5.0 | 0.00 | 0.03 | 0.00 | 22 | 1006.3 |
| 20260507221228 | 59 | 261 | 2.0 | 10.0 | 0.00 | 0.03 | 0.00 | 21 | 1006.3 |
| 20260507220707 | 60 | 106 | 4.0 | 10.0 | 0.00 | 0.03 | 0.00 | 20 | 1006.4 |
| 20260507220203 | 60 | 291 | 2.0 | 5.0 | 0.00 | 0.03 | 0.00 | 22 | 1006.2 |
| 20260507215702 | 60 | 259 | 2.0 | 11.0 | 0.00 | 0.04 | 0.00 | 22 | 1006.2 |
| 20260507215201 | 60 | 31 | 5.0 | 12.0 | 0.00 | 0.04 | 0.00 | 20 | 1006.2 |
| 20260507214716 | 60 | 300 | 3.0 | 12.0 | 0.00 | 0.04 | 0.00 | 20 | 1006.1 |
| 20260507214632 | 60 | 281 | 3.0 | 12.0 | 0.00 | 0.04 | 0.00 | 20 | 1006.1 |
| 20260507214213 | 61 | 270 | 2.0 | 11.0 | 0.00 | 0.04 | 0.00 | 21 | 1006.2 |
| 20260507213711 | 60 | 285 | 3.0 | 11.0 | 0.00 | 0.04 | 0.00 | 21 | 1006.1 |
| 20260507213207 | 61 | 323 | 2.0 | 9.0 | 0.00 | 0.04 | 0.00 | 20 | 1006.1 |
| 20260507213122 | 61 | 323 | 2.0 | 9.0 | 0.00 | 0.04 | 0.00 | 20 | 1006.0 |
| 20260507212707 | 61 | 259 | 3.0 | 8.0 | 0.00 | 0.04 | 0.00 | 20 | 1006.1 |
| 20260507212206 | 61 | 245 | 4.0 | 10.0 | 0.00 | 0.04 | 0.00 | 19 | 1006.0 |
| 20260507211705 | 61 | 276 | 3.0 | 10.0 | 0.00 | 0.04 | 0.00 | 19 | 1006.0 |
| 20260507211203 | 61 | 226 | 3.0 | 10.0 | 0.00 | 0.04 | 0.00 | 21 | 1006.0 |
| 20260507210704 | 61 | 302 | 3.0 | 10.0 | 0.00 | 0.04 | 0.00 | 21 | 1006.0 |
| 20260507210202 | 61 | 76 | 4.0 | 8.0 | 0.00 | 0.04 | 0.00 | 21 | 1006.0 |
| 20260507205701 | 61 | 179 | 3.0 | 14.0 | 0.00 | 0.09 | 0.00 | 20 | 1006.0 |
| 20260507205235 | 61 | 207 | 5.0 | 14.0 | 0.00 | 0.09 | 0.00 | 21 | 1006.0 |
| 20260507204715 | 61 | 216 | 5.0 | 14.0 | 0.00 | 0.09 | 0.00 | 20 | 1006.1 |
| 20260507204631 | 60 | 240 | 4.0 | 14.0 | 0.00 | 0.09 | 0.00 | 19 | 1006.0 |
| 20260507204232 | 61 | 137 | 5.0 | 12.0 | 0.00 | 0.09 | 0.00 | 20 | 1005.9 |
| 20260507203710 | 61 | 288 | 3.0 | 9.0 | 0.00 | 0.09 | 0.00 | 21 | 1005.9 |
| 20260507203207 | 61 | 303 | 4.0 | 9.0 | 0.00 | 0.09 | 0.00 | 21 | 1006.0 |
| 20260507203119 | 61 | 266 | 3.0 | 9.0 | 0.00 | 0.09 | 0.00 | 21 | 1006.0 |
| 20260507202706 | 60 | 14 | 3.0 | 7.0 | 0.00 | 0.09 | 0.00 | 22 | 1005.9 |
| 20260507202203 | 60 | 302 | 4.0 | 7.0 | 0.00 | 0.09 | 0.00 | 22 | 1006.0 |
| 20260507201704 | 60 | 350 | 2.0 | 8.0 | 0.00 | 0.09 | 0.00 | 22 | 1005.9 |
| 20260507201221 | 61 | 229 | 3.0 | 8.0 | 0.00 | 0.09 | 0.00 | 21 | 1005.9 |
| 20260507200718 | 62 | 283 | 3.0 | 8.0 | 0.00 | 0.09 | 0.00 | 19 | 1005.9 |
| 20260507200214 | 62 | 247 | 3.0 | 11.0 | 0.00 | 0.09 | 0.00 | 21 | 1005.9 |
| 20260507200131 | 61 | 214 | 3.0 | 11.0 | 0.00 | 0.11 | 0.00 | 21 | 1005.9 |
| 20260507195712 | 62 | 269 | 4.0 | 11.0 | 0.00 | 0.11 | 0.00 | 20 | 1006.0 |
| 20260507195207 | 61 | 184 | 2.0 | 8.0 | 0.00 | 0.11 | 0.00 | 23 | 1006.1 |
| 20260507194707 | 60 | 68 | 2.0 | 8.0 | 0.00 | 0.11 | 0.00 | 26 | 1006.0 |
| 20260507194305 | 60 | 319 | 3.0 | 8.0 | 0.00 | 0.11 | 0.00 | 23 | 1006.0 |
| 20260507193700 | 60 | 150 | 2.0 | 12.0 | 0.00 | 0.11 | 0.00 | 24 | 1006.1 |
| 20260507193158 | 60 | 150 | 6.0 | 12.0 | 0.00 | 0.11 | 0.00 | 22 | 1006.2 |
| 20260507192700 | 61 | 39 | 4.0 | 11.0 | 0.00 | 0.11 | 0.00 | 22 | 1006.2 |
| 20260507192212 | 61 | 192 | 5.0 | 11.0 | 0.00 | 0.11 | 0.00 | 24 | 1006.3 |
| 20260507191711 | 61 | 259 | 3.0 | 13.0 | 0.00 | 0.11 | 0.00 | 21 | 1006.3 |
| 20260507191630 | 60 | 259 | 3.0 | 13.0 | 0.00 | 0.11 | 0.00 | 22 | 1006.3 |
| 20260507191209 | 61 | 253 | 5.0 | 13.0 | 0.00 | 0.11 | 0.00 | 22 | 1006.4 |
| 20260507190708 | 60 | 352 | 4.0 | 13.0 | 0.00 | 0.11 | 0.00 | 22 | 1006.4 |
| 20260507190205 | 62 | 275 | 4.0 | 8.0 | 0.00 | 0.11 | 0.00 | 21 | 1006.3 |
| 20260507185706 | 61 | 276 | 3.0 | 7.0 | 0.00 | 0.15 | 0.00 | 24 | 1006.3 |
| 20260507184704 | 60 | 305 | 1.0 | 9.0 | 0.00 | 0.15 | 0.00 | 25 | 1006.5 |
| 20260507184200 | 60 | 298 | 4.0 | 11.0 | 0.00 | 0.15 | 0.00 | 21 | 1006.5 |
| 20260507183722 | 60 | 299 | 5.0 | 12.0 | 0.00 | 0.15 | 0.00 | 20 | 1006.7 |
| 20260507183200 | 61 | 297 | 5.0 | 11.0 | 0.00 | 0.15 | 0.00 | 23 | 1006.8 |
| 20260507182657 | 60 | 302 | 3.0 | 12.0 | 0.00 | 0.15 | 0.00 | 20 | 1006.7 |
| 20260507182152 | 60 | 315 | 5.0 | 12.0 | 0.00 | 0.15 | 0.00 | 20 | 1006.7 |
| 20260507181652 | 60 | 281 | 4.0 | 10.0 | 0.00 | 0.15 | 0.00 | 21 | 1006.8 |
| 20260507181236 | 60 | 242 | 5.0 | 11.0 | 0.00 | 0.15 | 0.00 | 21 | 1006.7 |
| 20260507180650 | 60 | 323 | 4.0 | 14.0 | 0.00 | 0.15 | 0.00 | 22 | 1006.9 |
| 20260507180213 | 60 | 110 | 5.0 | 14.0 | 0.00 | 0.15 | 0.00 | 21 | 1006.8 |
| 20260507180126 | 60 | 336 | 4.0 | 14.0 | 0.00 | 0.18 | 0.00 | 21 | 1006.9 |
| 20260507175731 | 60 | 250 | 3.0 | 14.0 | 0.00 | 0.18 | 0.00 | 22 | 1006.8 |
| 20260507175207 | 60 | 267 | 3.0 | 14.0 | 0.00 | 0.18 | 0.00 | 22 | 1006.9 |
| 20260507174706 | 61 | 259 | 4.0 | 7.0 | 0.00 | 0.18 | 0.00 | 21 | 1007.0 |
| 20260507174204 | 60 | 57 | 3.0 | 12.0 | 0.00 | 0.18 | 0.00 | 22 | 1006.9 |
| 20260507173721 | 60 | 278 | 3.0 | 12.0 | 0.00 | 0.18 | 0.00 | 21 | 1007.0 |
| 20260507173158 | 60 | 233 | 3.0 | 9.0 | 0.00 | 0.18 | 0.00 | 22 | 1007.0 |
| 20260507172700 | 60 | 246 | 4.0 | 9.0 | 0.00 | 0.18 | 0.00 | 22 | 1006.9 |
| 20260507172158 | 60 | 15 | 3.0 | 9.0 | 0.00 | 0.18 | 0.00 | 23 | 1007.0 |
| 20260507171718 | 60 | 225 | 4.0 | 9.0 | 0.00 | 0.18 | 0.00 | 25 | 1007.1 |
| 20260507171215 | 60 | 322 | 2.0 | 10.0 | 0.00 | 0.18 | 0.00 | 24 | 1007.1 |
| 20260507170651 | 60 | 285 | 3.0 | 10.0 | 0.00 | 0.18 | 0.00 | 22 | 1007.1 |
| 20260507170212 | 60 | 319 | 3.0 | 13.0 | 0.00 | 0.18 | 0.00 | 25 | 1007.2 |
| 20260507170125 | 59 | 268 | 2.0 | 13.0 | 0.00 | 0.18 | 0.00 | 25 | 1007.1 |
| 20260507165712 | 59 | 174 | 6.0 | 13.0 | 0.00 | 0.18 | 0.00 | 21 | 1007.3 |
| 20260507165209 | 60 | 278 | 4.0 | 10.0 | 0.00 | 0.18 | 0.00 | 22 | 1007.4 |
| 20260507164703 | 60 | 353 | 2.0 | 7.0 | 0.00 | 0.18 | 0.00 | 23 | 1007.4 |
| 20260507164158 | 60 | 53 | 1.0 | 10.0 | 0.00 | 0.18 | 0.00 | 26 | 1007.5 |
| 20260507163658 | 59 | 283 | 4.0 | 10.0 | 0.00 | 0.18 | 0.00 | 22 | 1007.6 |
| 20260507163153 | 60 | 63 | 4.0 | 8.0 | 0.00 | 0.18 | 0.00 | 23 | 1007.6 |
| 20260507162653 | 60 | 228 | 3.0 | 8.0 | 0.00 | 0.18 | 0.00 | 22 | 1007.6 |
| 20260507162213 | 60 | 354 | 2.0 | 8.0 | 0.00 | 0.18 | 0.00 | 26 | 1007.5 |
| 20260507161656 | 60 | 288 | 3.0 | 11.0 | 0.00 | 0.18 | 0.00 | 28 | 1007.6 |
| 20260507161152 | 60 | 65 | 3.0 | 11.0 | 0.00 | 0.18 | 0.00 | 25 | 1007.7 |
| 20260507160653 | 60 | 7 | 2.0 | 8.0 | 0.00 | 0.18 | 0.00 | 26 | 1007.6 |
| 20260507160214 | 59 | 116 | 3.0 | 8.0 | 0.00 | 0.18 | 0.00 | 29 | 1007.8 |
| 20260507160127 | 59 | 266 | 2.0 | 8.0 | 0.00 | 0.18 | 0.00 | 30 | 1007.7 |
| 20260507155714 | 59 | 36 | 3.0 | 11.0 | 0.00 | 0.18 | 0.00 | 26 | 1007.7 |
| 20260507155225 | 59 | 37 | 3.0 | 11.0 | 0.00 | 0.18 | 0.00 | 29 | 1007.7 |
| 20260507154702 | 58 | 229 | 3.0 | 7.0 | 0.00 | 0.18 | 0.00 | 32 | 1007.8 |
| 20260507154221 | 58 | 231 | 2.0 | 12.0 | 0.00 | 0.18 | 0.00 | 28 | 1007.8 |
| 20260507153722 | 57 | 276 | 3.0 | 12.0 | 0.00 | 0.18 | 0.00 | 30 | 1007.9 |
| 20260507153159 | 57 | 280 | 5.0 | 18.0 | 0.00 | 0.18 | 0.00 | 32 | 1008.0 |
| 20260507152659 | 57 | 248 | 6.0 | 18.0 | 0.00 | 0.18 | 0.00 | 29 | 1008.1 |
| 20260507152159 | 57 | 311 | 3.0 | 7.0 | 0.00 | 0.18 | 0.00 | 33 | 1008.2 |
| 20260507151700 | 57 | 115 | 3.0 | 13.0 | 0.00 | 0.18 | 0.00 | 34 | 1008.0 |
| 20260507151158 | 57 | 110 | 5.0 | 13.0 | 0.00 | 0.18 | 0.00 | 34 | 1008.1 |
| 20260507150659 | 57 | 275 | 2.0 | 9.0 | 0.00 | 0.18 | 0.00 | 40 | 1008.2 |
| 20260507150214 | 57 | 337 | 2.0 | 7.0 | 0.00 | 0.18 | 0.00 | 38 | 1008.2 |
| 20260507150132 | 57 | 305 | 2.0 | 7.0 | 0.00 | 0.18 | 0.00 | 40 | 1008.1 |
| 20260507145712 | 56 | 252 | 3.0 | 10.0 | 0.00 | 0.18 | 0.00 | 36 | 1008.3 |
| 20260507145208 | 57 | 251 | 4.0 | 10.0 | 0.00 | 0.18 | 0.00 | 37 | 1008.2 |
| 20260507144725 | 56 | 315 | 2.0 | 7.0 | 0.00 | 0.18 | 0.00 | 39 | 1008.2 |
| 20260507144201 | 56 | 319 | 3.0 | 10.0 | 0.00 | 0.18 | 0.00 | 38 | 1008.2 |
| 20260507143703 | 55 | 265 | 4.0 | 10.0 | 0.00 | 0.18 | 0.00 | 39 | 1008.1 |
| 20260507143200 | 55 | 297 | 4.0 | 10.0 | 0.00 | 0.18 | 0.00 | 46 | 1008.2 |
| 20260507142701 | 55 | 342 | 4.0 | 12.0 | 0.00 | 0.18 | 0.00 | 45 | 1008.1 |
| 20260507142200 | 55 | 274 | 5.0 | 12.0 | 0.00 | 0.18 | 0.00 | 44 | 1008.0 |
| 20260507141701 | 56 | 207 | 3.0 | 11.0 | 0.00 | 0.18 | 0.00 | 44 | 1008.0 |
| 20260507141200 | 56 | 25 | 4.0 | 11.0 | 0.00 | 0.18 | 0.00 | 44 | 1008.0 |
| 20260507140653 | 56 | 268 | 4.0 | 8.0 | 0.00 | 0.18 | 0.00 | 44 | 1007.9 |
| 20260507140152 | 55 | 269 | 1.0 | 6.0 | 0.00 | 0.18 | 0.00 | 45 | 1008.1 |
| 20260507135653 | 55 | 291 | 2.0 | 6.0 | 0.00 | 0.18 | 0.00 | 45 | 1008.1 |
| 20260507135211 | 54 | 239 | 1.0 | 9.0 | 0.00 | 0.18 | 0.00 | 48 | 1008.0 |
| 20260507134713 | 54 | 290 | 3.0 | 9.0 | 0.00 | 0.18 | 0.00 | 46 | 1008.0 |
| 20260507134626 | 53 | 307 | 2.0 | 9.0 | 0.00 | 0.18 | 0.00 | 46 | 1007.9 |
| 20260507134229 | 54 | 311 | 1.0 | 7.0 | 0.00 | 0.18 | 0.00 | 46 | 1008.0 |
| 20260507133727 | 54 | 326 | 2.0 | 9.0 | 0.00 | 0.18 | 0.00 | 47 | 1008.0 |
| 20260507133206 | 54 | 275 | 3.0 | 9.0 | 0.00 | 0.18 | 0.00 | 49 | 1008.0 |
| 20260507133117 | 54 | 300 | 2.0 | 8.0 | 0.00 | 0.18 | 0.00 | 49 | 1008.0 |
| 20260507132704 | 53 | 295 | 2.0 | 10.0 | 0.00 | 0.18 | 0.00 | 48 | 1008.1 |
| 20260507132158 | 53 | 290 | 4.0 | 10.0 | 0.00 | 0.18 | 0.00 | 49 | 1008.2 |
| 20260507131718 | 53 | 284 | 2.0 | 7.0 | 0.00 | 0.18 | 0.00 | 49 | 1008.2 |
| 20260507131214 | 53 | 312 | 2.0 | 7.0 | 0.00 | 0.18 | 0.00 | 48 | 1008.2 |
| 20260507130650 | 53 | 296 | 2.0 | 5.0 | 0.00 | 0.18 | 0.00 | 48 | 1008.3 |
| 20260507130212 | 53 | 220 | 1.0 | 4.0 | 0.00 | 0.18 | 0.00 | 48 | 1008.3 |
| 20260507130125 | 52 | 247 | 1.0 | 4.0 | 0.00 | 0.18 | 0.00 | 48 | 1008.2 |
| 20260507125712 | 52 | 267 | 0.0 | 4.0 | 0.00 | 0.18 | 0.00 | 49 | 1008.3 |
| 20260507125210 | 52 | 34 | 1.0 | 4.0 | 0.00 | 0.18 | 0.00 | 50 | 1008.2 |
| 20260507124709 | 52 | 280 | 1.0 | 4.0 | 0.00 | 0.18 | 0.00 | 52 | 1008.3 |
| 20260507124624 | 51 | 243 | 1.0 | 4.0 | 0.00 | 0.18 | 0.00 | 52 | 1008.2 |
| 20260507124206 | 51 | 320 | 1.0 | 4.0 | 0.00 | 0.18 | 0.00 | 50 | 1008.3 |
| 20260507123705 | 51 | 293 | 0.0 | 4.0 | 0.00 | 0.18 | 0.00 | 52 | 1008.2 |
| 20260507123203 | 51 | 6 | 1.0 | 7.0 | 0.00 | 0.18 | 0.00 | 53 | 1008.2 |
| 20260507122719 | 51 | 205 | 2.0 | 7.0 | 0.00 | 0.18 | 0.00 | 52 | 1008.3 |
| 20260507122217 | 50 | 160 | 2.0 | 7.0 | 0.00 | 0.18 | 0.00 | 53 | 1008.3 |
| 20260507121157 | 50 | 316 | 1.0 | 7.0 | 0.00 | 0.18 | 0.00 | 54 | 1008.3 |
| 20260507120658 | 50 | 126 | 2.0 | 8.0 | 0.00 | 0.18 | 0.00 | 55 | 1008.3 |
| 20260507120256 | 50 | 281 | 0.0 | 4.0 | 0.00 | 0.18 | 0.00 | 55 | 1008.4 |
| 20260507120124 | 49 | 358 | 0.0 | 4.0 | 0.00 | 0.18 | 0.00 | 55 | 1008.4 |
| 20260507115711 | 49 | 51 | 0.0 | 10.0 | 0.00 | 0.18 | 0.00 | 56 | 1008.5 |
| 20260507115207 | 49 | 258 | 3.0 | 10.0 | 0.00 | 0.18 | 0.00 | 55 | 1008.5 |
| 20260507114721 | 49 | 307 | 1.0 | 5.0 | 0.00 | 0.18 | 0.00 | 57 | 1008.5 |
| 20260507114158 | 48 | 3 | 2.0 | 6.0 | 0.00 | 0.18 | 0.00 | 57 | 1008.4 |
| 20260507113701 | 48 | 39 | 1.0 | 6.0 | 0.00 | 0.18 | 0.00 | 57 | 1008.4 |
| 20260507113209 | 48 | 300 | 1.0 | 3.0 | 0.00 | 0.18 | 0.00 | 59 | 1008.4 |
| 20260507113121 | 47 | 258 | 1.0 | 3.0 | 0.00 | 0.18 | 0.00 | 59 | 1008.2 |
| 20260507112707 | 47 | 323 | 0.0 | 2.0 | 0.00 | 0.18 | 0.00 | 59 | 1008.2 |
| 20260507112224 | 47 | 285 | 0.0 | 5.0 | 0.00 | 0.18 | 0.00 | 59 | 1008.3 |
| 20260507111703 | 47 | 276 | 2.0 | 5.0 | 0.00 | 0.18 | 0.00 | 59 | 1008.3 |
| 20260507111202 | 47 | 259 | 1.0 | 5.0 | 0.00 | 0.18 | 0.00 | 59 | 1008.3 |
| 20260507110702 | 46 | 213 | 0.0 | 4.0 | 0.00 | 0.18 | 0.00 | 60 | 1008.3 |
| 20260507110216 | 46 | 258 | 1.0 | 4.0 | 0.00 | 0.18 | 0.00 | 60 | 1008.2 |
| 20260507110134 | 46 | 267 | 1.0 | 4.0 | 0.00 | 0.18 | 0.00 | 60 | 1008.1 |
| 20260507105734 | 46 | 219 | 1.0 | 4.0 | 0.00 | 0.18 | 0.00 | 61 | 1008.2 |
| 20260507105211 | 46 | 285 | 1.0 | 4.0 | 0.00 | 0.18 | 0.00 | 60 | 1008.0 |
| 20260507104710 | 46 | 319 | 1.0 | 3.0 | 0.00 | 0.18 | 0.00 | 60 | 1008.0 |
| 20260507104622 | 46 | 300 | 0.0 | 3.0 | 0.00 | 0.18 | 0.00 | 60 | 1007.8 |
| 20260507104206 | 46 | 237 | 0.0 | 2.0 | 0.00 | 0.18 | 0.00 | 60 | 1007.9 |
| 20260507103725 | 46 | 193 | 0.0 | 3.0 | 0.00 | 0.18 | 0.00 | 61 | 1007.8 |
| 20260507103203 | 46 | 323 | 1.0 | 3.0 | 0.00 | 0.18 | 0.00 | 61 | 1007.7 |
| 20260507102703 | 46 | 253 | 1.0 | 2.0 | 0.00 | 0.18 | 0.00 | 61 | 1007.8 |
| 20260507102201 | 46 | 271 | 0.0 | 3.0 | 0.00 | 0.18 | 0.00 | 61 | 1007.8 |
| 20260507101702 | 46 | 290 | 1.0 | 3.0 | 0.00 | 0.18 | 0.00 | 61 | 1007.9 |
| 20260507101152 | 46 | 286 | 0.0 | 2.0 | 0.00 | 0.18 | 0.00 | 61 | 1007.8 |
| 20260507100657 | 46 | 250 | 0.0 | 2.0 | 0.00 | 0.18 | 0.00 | 61 | 1007.8 |
| 20260507100152 | 46 | 250 | 0.0 | 2.0 | 0.00 | 0.18 | 0.00 | 61 | 1007.9 |
| 20260507095652 | 46 | 281 | 0.0 | 0.0 | 0.00 | 0.18 | 0.00 | 61 | 1007.8 |
| 20260507095254 | 46 | 319 | 0.0 | 1.0 | 0.00 | 0.18 | 0.00 | 60 | 1007.6 |
| 20260507094725 | 46 | 316 | 0.0 | 2.0 | 0.00 | 0.18 | 0.00 | 60 | 1007.8 |
| 20260507094204 | 46 | 324 | 0.0 | 2.0 | 0.00 | 0.18 | 0.00 | 60 | 1008.1 |
| 20260507093704 | 47 | 314 | 0.0 | 2.0 | 0.00 | 0.18 | 0.00 | 60 | 1008.1 |
| 20260507093204 | 47 | 303 | 1.0 | 3.0 | 0.00 | 0.18 | 0.00 | 60 | 1008.0 |
| 20260507092719 | 47 | 243 | 1.0 | 5.0 | 0.00 | 0.18 | 0.00 | 60 | 1007.9 |
| 20260507092151 | 47 | 266 | 1.0 | 8.0 | 0.00 | 0.18 | 0.00 | 59 | 1007.9 |
| 20260507091652 | 47 | 273 | 2.0 | 8.0 | 0.00 | 0.18 | 0.00 | 59 | 1007.9 |
| 20260507091233 | 47 | 321 | 0.0 | 4.0 | 0.00 | 0.18 | 0.00 | 60 | 1008.0 |
| 20260507090649 | 47 | 108 | 2.0 | 4.0 | 0.00 | 0.18 | 0.00 | 60 | 1008.1 |
| 20260507090212 | 46 | 246 | 1.0 | 4.0 | 0.00 | 0.18 | 0.00 | 60 | 1007.9 |
| 20260507090125 | 46 | 244 | 0.0 | 4.0 | 0.00 | 0.18 | 0.00 | 60 | 1007.9 |
| 20260507085708 | 47 | 267 | 1.0 | 3.0 | 0.00 | 0.18 | 0.00 | 60 | 1008.2 |
| 20260507085224 | 46 | 315 | 1.0 | 2.0 | 0.00 | 0.18 | 0.00 | 61 | 1008.2 |
| 20260507084704 | 46 | 288 | 0.0 | 3.0 | 0.00 | 0.18 | 0.00 | 61 | 1008.4 |
| 20260507084157 | 47 | 221 | 0.0 | 3.0 | 0.00 | 0.18 | 0.00 | 61 | 1008.3 |
| 20260507083657 | 47 | 278 | 0.0 | 6.0 | 0.00 | 0.18 | 0.00 | 60 | 1007.9 |
| 20260507083235 | 47 | 312 | 0.0 | 6.0 | 0.00 | 0.18 | 0.00 | 61 | 1007.7 |
| 20260507083126 | 46 | 257 | 0.0 | 6.0 | 0.00 | 0.18 | 0.00 | 61 | 1007.6 |
| 20260507082649 | 47 | 259 | 1.0 | 3.0 | 0.00 | 0.18 | 0.00 | 60 | 1007.9 |
| 20260507082209 | 47 | 269 | 1.0 | 3.0 | 0.00 | 0.18 | 0.00 | 61 | 1007.9 |
| 20260507081651 | 47 | 11 | 0.0 | 2.0 | 0.00 | 0.18 | 0.00 | 61 | 1007.8 |
| 20260507081211 | 47 | 266 | 0.0 | 3.0 | 0.00 | 0.18 | 0.00 | 61 | 1007.9 |
| 20260507080711 | 47 | 257 | 1.0 | 3.0 | 0.00 | 0.18 | 0.00 | 61 | 1007.6 |
| 20260507080207 | 47 | 110 | 0.0 | 2.0 | 0.00 | 0.18 | 0.00 | 61 | 1007.6 |
| 20260507080120 | 46 | 340 | 0.0 | 2.0 | 0.00 | 0.18 | 0.00 | 61 | 1007.4 |
| 20260507075706 | 47 | 264 | 0.0 | 2.0 | 0.00 | 0.18 | 0.00 | 62 | 1007.5 |
| 20260507075220 | 47 | 319 | 0.0 | 0.0 | 0.00 | 0.18 | 0.00 | 61 | 1007.4 |
| 20260507074658 | 48 | 319 | 0.0 | 1.0 | 0.00 | 0.18 | 0.00 | 61 | 1007.7 |
| 20260507074151 | 48 | 319 | 0.0 | 1.0 | 0.00 | 0.18 | 0.00 | 60 | 1007.7 |
| 20260507073656 | 48 | 257 | 0.0 | 3.0 | 0.00 | 0.18 | 0.00 | 60 | 1007.9 |
| 20260507073211 | 48 | 255 | 0.0 | 3.0 | 0.00 | 0.18 | 0.00 | 60 | 1007.9 |
| 20260507072657 | 48 | 262 | 0.0 | 4.0 | 0.00 | 0.18 | 0.00 | 59 | 1007.5 |
| 20260507072152 | 48 | 285 | 2.0 | 6.0 | 0.00 | 0.18 | 0.00 | 59 | 1007.7 |
| 20260507071151 | 48 | 268 | 1.0 | 4.0 | 0.00 | 0.18 | 0.00 | 59 | 1007.1 |
| 20260507070652 | 49 | 297 | 1.0 | 3.0 | 0.00 | 0.18 | 0.00 | 59 | 1007.1 |
| 20260507070214 | 49 | 283 | 1.0 | 3.0 | 0.00 | 0.18 | 0.00 | 59 | 1007.0 |
| 20260507070131 | 48 | 275 | 0.0 | 3.0 | 0.00 | 0.18 | 0.00 | 59 | 1006.9 |
| 20260507065709 | 49 | 288 | 1.0 | 6.0 | 0.00 | 0.18 | 0.00 | 59 | 1007.2 |
| 20260507065206 | 49 | 267 | 0.0 | 6.0 | 0.00 | 0.18 | 0.00 | 59 | 1006.9 |
| 20260507064703 | 49 | 297 | 1.0 | 5.0 | 0.00 | 0.18 | 0.00 | 60 | 1007.1 |
| 20260507064620 | 48 | 19 | 1.0 | 5.0 | 0.00 | 0.18 | 0.00 | 60 | 1007.0 |
| 20260507064159 | 49 | 276 | 1.0 | 5.0 | 0.00 | 0.18 | 0.00 | 60 | 1007.1 |
| 20260507063700 | 49 | 278 | 1.0 | 3.0 | 0.00 | 0.18 | 0.00 | 60 | 1007.0 |
| 20260507063201 | 49 | 253 | 2.0 | 4.0 | 0.00 | 0.18 | 0.00 | 60 | 1006.8 |
| 20260507062700 | 49 | 286 | 1.0 | 5.0 | 0.00 | 0.18 | 0.00 | 60 | 1007.1 |
| 20260507062159 | 50 | 207 | 2.0 | 5.0 | 0.00 | 0.18 | 0.00 | 60 | 1007.2 |
| 20260507061701 | 50 | 276 | 0.0 | 5.0 | 0.00 | 0.18 | 0.00 | 60 | 1006.8 |
| 20260507061158 | 50 | 293 | 2.0 | 5.0 | 0.00 | 0.18 | 0.00 | 60 | 1006.7 |
| 20260507060700 | 50 | 306 | 1.0 | 5.0 | 0.00 | 0.18 | 0.00 | 60 | 1006.9 |
| 20260507060152 | 50 | 358 | 1.0 | 5.0 | 0.00 | 0.18 | 0.00 | 61 | 1007.0 |
| 20260507055651 | 50 | 320 | 1.0 | 4.0 | 0.00 | 0.18 | 0.00 | 61 | 1007.0 |
| 20260507055211 | 50 | 283 | 0.0 | 2.0 | 0.00 | 0.18 | 0.00 | 61 | 1007.1 |
| 20260507054709 | 50 | 318 | 0.0 | 2.0 | 0.00 | 0.18 | 0.00 | 60 | 1007.1 |
| 20260507054627 | 49 | 318 | 0.0 | 2.0 | 0.00 | 0.18 | 0.00 | 60 | 1007.0 |
| 20260507054227 | 50 | 255 | 0.0 | 4.0 | 0.00 | 0.18 | 0.00 | 60 | 1007.4 |
| 20260507053726 | 50 | 277 | 1.0 | 6.0 | 0.00 | 0.18 | 0.00 | 60 | 1007.6 |
| 20260507053224 | 50 | 266 | 2.0 | 6.0 | 0.00 | 0.18 | 0.00 | 60 | 1007.4 |
| 20260507052702 | 50 | 326 | 0.0 | 4.0 | 0.00 | 0.18 | 0.00 | 60 | 1007.5 |
| 20260507052159 | 50 | 210 | 1.0 | 7.0 | 0.00 | 0.18 | 0.00 | 60 | 1007.5 |
| 20260507051712 | 50 | 270 | 3.0 | 7.0 | 0.00 | 0.18 | 0.00 | 60 | 1007.5 |
| 20260507051211 | 50 | 317 | 1.0 | 5.0 | 0.00 | 0.18 | 0.00 | 60 | 1007.7 |
| 20260507050708 | 50 | 259 | 3.0 | 5.0 | 0.00 | 0.18 | 0.00 | 60 | 1007.6 |
| 20260507050204 | 50 | 233 | 0.0 | 1.0 | 0.00 | 0.18 | 0.00 | 61 | 1007.6 |
| 20260507050117 | 50 | 233 | 0.0 | 0.0 | 0.00 | 0.00 | 0.00 | 61 | 1007.2 |
| 20260507045703 | 50 | 130 | 0.0 | 1.0 | 0.00 | 0.18 | 0.00 | 61 | 1007.4 |
| 20260507045202 | 50 | 151 | 0.0 | 1.0 | 0.00 | 0.18 | 0.00 | 60 | 1007.6 |
| 20260507044703 | 50 | 214 | 0.0 | 4.0 | 0.00 | 0.18 | 0.00 | 60 | 1007.3 |
| 20260507044202 | 50 | 314 | 1.0 | 4.0 | 0.00 | 0.18 | 0.00 | 60 | 1007.2 |
| 20260507043703 | 51 | 107 | 0.0 | 5.0 | 0.00 | 0.18 | 0.00 | 60 | 1007.0 |
| 20260507043201 | 51 | 239 | 2.0 | 5.0 | 0.00 | 0.18 | 0.00 | 60 | 1007.0 |
| 20260507042722 | 51 | 234 | 1.0 | 5.0 | 0.00 | 0.18 | 0.00 | 60 | 1007.4 |
| 20260507042156 | 51 | 317 | 0.0 | 3.0 | 0.00 | 0.18 | 0.00 | 60 | 1007.4 |
| 20260507041712 | 51 | 274 | 1.0 | 3.0 | 0.00 | 0.18 | 0.00 | 60 | 1007.4 |
| 20260507041210 | 52 | 266 | 0.0 | 1.0 | 0.00 | 0.18 | 0.00 | 60 | 1007.6 |
| 20260507040732 | 52 | 200 | 0.0 | 2.0 | 0.00 | 0.18 | 0.00 | 60 | 1007.5 |
| 20260507040228 | 52 | 206 | 1.0 | 2.0 | 0.00 | 0.18 | 0.00 | 60 | 1007.5 |
| 20260507040117 | 51 | 254 | 0.0 | 2.0 | 0.00 | 0.18 | 0.18 | 60 | 1007.2 |
| 20260507035725 | 52 | 216 | 0.0 | 4.0 | 0.00 | 0.18 | 0.18 | 59 | 1007.3 |
| 20260507035221 | 52 | 230 | 0.0 | 6.0 | 0.00 | 0.18 | 0.18 | 60 | 1007.3 |
| 20260507034653 | 53 | 248 | 1.0 | 6.0 | 0.01 | 0.18 | 0.18 | 59 | 1007.0 |
| 20260507034152 | 53 | 59 | 1.0 | 4.0 | 0.01 | 0.18 | 0.18 | 59 | 1007.0 |
| 20260507033652 | 53 | 248 | 1.0 | 3.0 | 0.02 | 0.18 | 0.18 | 60 | 1006.9 |
| 20260507033212 | 54 | 359 | 0.0 | 4.0 | 0.02 | 0.18 | 0.18 | 60 | 1006.9 |
| 20260507032711 | 54 | 132 | 1.0 | 4.0 | 0.02 | 0.18 | 0.18 | 60 | 1006.7 |
| 20260507032209 | 54 | 260 | 0.0 | 5.0 | 0.02 | 0.18 | 0.18 | 60 | 1006.7 |
| 20260507031709 | 54 | 302 | 2.0 | 5.0 | 0.02 | 0.18 | 0.18 | 60 | 1006.7 |
| 20260507031621 | 53 | 297 | 1.0 | 5.0 | 0.02 | 0.18 | 0.18 | 60 | 1006.3 |
| 20260507031205 | 54 | 335 | 0.0 | 3.0 | 0.02 | 0.18 | 0.18 | 60 | 1006.5 |
| 20260507030704 | 54 | 285 | 1.0 | 3.0 | 0.02 | 0.18 | 0.18 | 60 | 1006.6 |
| 20260507030200 | 54 | 278 | 0.0 | 5.0 | 0.02 | 0.18 | 0.18 | 61 | 1006.4 |
| 20260507025659 | 55 | 266 | 1.0 | 5.0 | 0.02 | 0.18 | 0.18 | 61 | 1006.4 |
| 20260507025153 | 55 | 300 | 1.0 | 8.0 | 0.02 | 0.18 | 0.18 | 60 | 1006.3 |
| 20260507024653 | 55 | 236 | 2.0 | 8.0 | 0.01 | 0.17 | 0.17 | 60 | 1006.5 |
| 20260507024149 | 56 | 41 | 3.0 | 9.0 | 0.01 | 0.17 | 0.17 | 59 | 1006.6 |
| 20260507023712 | 56 | 214 | 3.0 | 9.0 | 0.00 | 0.16 | 0.16 | 59 | 1006.7 |
| 20260507023230 | 57 | 296 | 2.0 | 7.0 | 0.00 | 0.16 | 0.16 | 59 | 1006.8 |
| 20260507023124 | 57 | 323 | 1.0 | 9.0 | 0.00 | 0.16 | 0.16 | 59 | 1006.5 |
| 20260507022709 | 58 | 299 | 2.0 | 9.0 | 0.00 | 0.16 | 0.16 | 59 | 1006.6 |
| 20260507022205 | 58 | 19 | 3.0 | 9.0 | 0.00 | 0.16 | 0.16 | 61 | 1006.5 |
| 20260507021704 | 58 | 281 | 1.0 | 4.0 | 0.00 | 0.16 | 0.16 | 63 | 1006.3 |
| 20260507021200 | 59 | 218 | 1.0 | 4.0 | 0.00 | 0.16 | 0.16 | 63 | 1006.0 |
| 20260507020651 | 59 | 7 | 1.0 | 4.0 | 0.00 | 0.16 | 0.16 | 64 | 1005.9 |
| 20260507020150 | 59 | 265 | 1.0 | 3.0 | 0.00 | 0.16 | 0.16 | 64 | 1005.9 |
| 20260507015650 | 59 | 233 | 1.0 | 3.0 | 0.00 | 0.16 | 0.16 | 64 | 1006.0 |
| 20260507015148 | 59 | 230 | 0.0 | 5.0 | 0.00 | 0.16 | 0.16 | 64 | 1005.9 |
| 20260507014712 | 59 | 262 | 0.0 | 5.0 | 0.00 | 0.16 | 0.16 | 64 | 1006.0 |
| 20260507014626 | 58 | 262 | 0.0 | 5.0 | 0.00 | 0.16 | 0.16 | 64 | 1005.7 |
| 20260507014228 | 58 | 269 | 0.0 | 2.0 | 0.00 | 0.16 | 0.16 | 64 | 1005.9 |
| 20260507013705 | 58 | 51 | 0.0 | 2.0 | 0.00 | 0.16 | 0.16 | 64 | 1005.7 |
| 20260507013222 | 58 | 145 | 0.0 | 1.0 | 0.00 | 0.16 | 0.16 | 64 | 1005.8 |